Meteo pe oră la Dabki

Astăzi, 11 Aprilie, Duminică

Timp Temperatura Precipitaţii Vânt Presiune Umiditate
00:00 +4°C° 0 mm 3 m/s 754 mmHg 95%
01:00 +4°C° 0 mm 3 m/s 754 mmHg 95%
02:00 +5°C° 0 mm 3 m/s 754 mmHg 95%
03:00 +5°C° 0 mm 3 m/s 753 mmHg 94%
04:00 +5°C° 0 mm 3 m/s 753 mmHg 93%
05:00 +7°C° 0 mm 3 m/s 753 mmHg 91%
06:00 +7°C° 0 mm 3 m/s 752 mmHg 88%
07:00 +8°C° 0 mm 3 m/s 752 mmHg 87%
08:00 +10°C° 0 mm 3 m/s 752 mmHg 77%
09:00 +12°C° 0 mm 4 m/s 752 mmHg 67%
10:00 +14°C° 0 mm 4 m/s 752 mmHg 57%
11:00 +15°C° 0 mm 4 m/s 751 mmHg 53%
12:00 +17°C° 0 mm 4 m/s 751 mmHg 50%
13:00 +19°C° 0 mm 3 m/s 751 mmHg 45%
14:00 +19°C° 0 mm 3 m/s 751 mmHg 47%
15:00 +19°C° 0 mm 3 m/s 750 mmHg 48%
16:00 +19°C° 0 mm 3 m/s 750 mmHg 50%
17:00 +17°C° 0 mm 3 m/s 750 mmHg 58%
18:00 +14°C° 0 mm 3 m/s 751 mmHg 65%
19:00 +12°C° 0 mm 3 m/s 751 mmHg 73%
20:00 +12°C° 0 mm 2 m/s 751 mmHg 75%
21:00 +12°C° 0 mm 2 m/s 751 mmHg 77%
22:00 +10°C° 0 mm 2 m/s 751 mmHg 80%
23:00 +9°C° 0 mm 3 m/s 752 mmHg 83%

Mâine, 12 Aprilie, Luni

Timp Temperatura Precipitaţii Vânt Presiune Umiditate
00:00 +8°C° 0 mm 4 m/s 753 mmHg 87%
01:00 +7°C° 0 mm 4 m/s 754 mmHg 91%
02:00 +6°C° 0 mm 4 m/s 754 mmHg 89%
03:00 +5°C° 0 mm 4 m/s 755 mmHg 87%
04:00 +4°C° 0 mm 4 m/s 755 mmHg 86%
05:00 +4°C° 0 mm 4 m/s 756 mmHg 84%
06:00 +4°C° 0 mm 4 m/s 757 mmHg 83%
07:00 +3°C° 0 mm 4 m/s 758 mmHg 81%
08:00 +3°C° 0.3 mm 4 m/s 758 mmHg 83%
09:00 +3°C° 0.3 mm 4 m/s 759 mmHg 85%
10:00 +1°C° 0.3 mm 4 m/s 759 mmHg 86%
11:00 +3°C° 0.3 mm 4 m/s 760 mmHg 82%
12:00 +4°C° 0.3 mm 3 m/s 760 mmHg 77%
13:00 +4°C° 0.3 mm 3 m/s 760 mmHg 72%
14:00 +4°C° 0.3 mm 3 m/s 760 mmHg 74%
15:00 +4°C° 0.3 mm 3 m/s 760 mmHg 77%
16:00 +4°C° 0.3 mm 3 m/s 761 mmHg 80%
17:00 +5°C° 0.1 mm 2 m/s 761 mmHg 79%
18:00 +5°C° 0.1 mm 2 m/s 761 mmHg 77%
19:00 +6°C° 0.1 mm 1 m/s 762 mmHg 76%
20:00 +5°C° 0 mm 1 m/s 762 mmHg 76%
21:00 +5°C° 0 mm 1 m/s 762 mmHg 77%
22:00 +5°C° 0 mm 1 m/s 762 mmHg 77%
23:00 +5°C° 0 mm 1 m/s 762 mmHg 77%

Poimâine, 13 Aprilie, Marţi

Timp Temperatura Precipitaţii Vânt Presiune Umiditate
00:00 +5°C° 0 mm 1 m/s 762 mmHg 76%
01:00 +3°C° 0 mm 2 m/s 763 mmHg 76%
02:00 +3°C° 0 mm 2 m/s 763 mmHg 77%
03:00 +3°C° 0 mm 2 m/s 763 mmHg 77%
04:00 +4°C° 0 mm 1 m/s 763 mmHg 78%
05:00 +3°C° 0 mm 2 m/s 763 mmHg 76%
06:00 +3°C° 0 mm 2 m/s 764 mmHg 74%
07:00 +4°C° 0 mm 2 m/s 764 mmHg 72%
08:00 +4°C° 0 mm 3 m/s 764 mmHg 63%
09:00 +5°C° 0 mm 3 m/s 764 mmHg 53%
10:00 +7°C° 0 mm 4 m/s 764 mmHg 44%
11:00 +7°C° 0 mm 4 m/s 764 mmHg 41%
12:00 +8°C° 0 mm 4 m/s 764 mmHg 38%
13:00 +10°C° 0 mm 4 m/s 764 mmHg 35%
14:00 +10°C° 0 mm 4 m/s 763 mmHg 35%
15:00 +10°C° 0 mm 4 m/s 763 mmHg 36%
16:00 +9°C° 0 mm 5 m/s 763 mmHg 37%
17:00 +7°C° 0 mm 4 m/s 763 mmHg 43%
18:00 +7°C° 0 mm 3 m/s 763 mmHg 50%
19:00 +6°C° 0 mm 2 m/s 763 mmHg 56%
20:00 +6°C° 0 mm 2 m/s 763 mmHg 62%
21:00 +5°C° 0 mm 2 m/s 764 mmHg 67%
22:00 +3°C° 0 mm 3 m/s 764 mmHg 72%
23:00 +3°C° 0 mm 3 m/s 764 mmHg 75%

14 Aprilie, Miercuri

Timp Temperatura Precipitaţii Vânt Presiune Umiditate
00:00 +3°C° 0 mm 2 m/s 764 mmHg 78%
01:00 +3°C° 0 mm 2 m/s 764 mmHg 81%
02:00 +2°C° 0 mm 2 m/s 764 mmHg 83%
03:00 +2°C° 0 mm 2 m/s 764 mmHg 84%
04:00 +2°C° 0 mm 2 m/s 764 mmHg 86%
05:00 +1°C° 0 mm 3 m/s 764 mmHg 83%
06:00 +1°C° 0 mm 3 m/s 764 mmHg 80%
07:00 +2°C° 0 mm 3 m/s 764 mmHg 77%
08:00 +3°C° 0 mm 4 m/s 764 mmHg 69%
09:00 +4°C° 0 mm 4 m/s 764 mmHg 62%
10:00 +5°C° 0 mm 4 m/s 764 mmHg 54%
11:00 +6°C° 0 mm 4 m/s 763 mmHg 49%
12:00 +7°C° 0 mm 4 m/s 763 mmHg 45%
13:00 +7°C° 0 mm 4 m/s 763 mmHg 40%
14:00 +7°C° 0 mm 4 m/s 762 mmHg 41%
15:00 +7°C° 0 mm 4 m/s 762 mmHg 42%
16:00 +7°C° 0 mm 4 m/s 762 mmHg 44%
17:00 +7°C° 0 mm 4 m/s 762 mmHg 52%
18:00 +6°C° 0 mm 4 m/s 762 mmHg 60%
19:00 +5°C° 0 mm 4 m/s 762 mmHg 69%
20:00 +4°C° 0 mm 3 m/s 762 mmHg 71%
21:00 +4°C° 0 mm 3 m/s 762 mmHg 74%
22:00 +4°C° 0 mm 3 m/s 762 mmHg 77%
23:00 +3°C° 0 mm 3 m/s 762 mmHg 76%

15 Aprilie, Joi

Timp Temperatura Precipitaţii Vânt Presiune Umiditate
00:00 +2°C° 0 mm 3 m/s 762 mmHg 75%
01:00 +2°C° 0 mm 3 m/s 762 mmHg 74%
02:00 +2°C° 0 mm 3 m/s 762 mmHg 72%
03:00 +1°C° 0 mm 3 m/s 763 mmHg 71%
04:00 +1°C° 0 mm 3 m/s 763 mmHg 70%
05:00 +1°C° 0 mm 3 m/s 763 mmHg 69%
06:00 0°C° 0 mm 4 m/s 763 mmHg 68%
07:00 +1°C° 0 mm 4 m/s 763 mmHg 67%
08:00 +1°C° 0 mm 4 m/s 763 mmHg 66%
09:00 +3°C° 0 mm 4 m/s 763 mmHg 65%
10:00 +3°C° 0 mm 4 m/s 763 mmHg 63%
11:00 +4°C° 0 mm 4 m/s 763 mmHg 61%
12:00 +5°C° 0 mm 4 m/s 763 mmHg 58%
13:00 +6°C° 0 mm 5 m/s 763 mmHg 55%
14:00 +6°C° 0.1 mm 4 m/s 762 mmHg 59%
15:00 +6°C° 0.1 mm 4 m/s 762 mmHg 63%
16:00 +6°C° 0.1 mm 4 m/s 762 mmHg 66%
17:00 +7°C° 0 mm 3 m/s 762 mmHg 66%
18:00 +6°C° 0 mm 2 m/s 762 mmHg 65%
19:00 +6°C° 0 mm 2 m/s 762 mmHg 65%
20:00 +5°C° 0 mm 2 m/s 762 mmHg 66%
21:00 +4°C° 0 mm 3 m/s 763 mmHg 68%
22:00 +3°C° 0 mm 3 m/s 763 mmHg 69%
23:00 +3°C° 0 mm 3 m/s 763 mmHg 71%

16 Aprilie, Vineri

Timp Temperatura Precipitaţii Vânt Presiune Umiditate
00:00 +3°C° 0 mm 3 m/s 763 mmHg 72%
01:00 +3°C° 0 mm 3 m/s 763 mmHg 74%
02:00 +2°C° 0 mm 3 m/s 763 mmHg 76%
03:00 +3°C° 0 mm 2 m/s 763 mmHg 79%
04:00 +3°C° 0 mm 2 m/s 763 mmHg 82%
05:00 +3°C° 0 mm 2 m/s 763 mmHg 80%
06:00 +2°C° 0 mm 3 m/s 763 mmHg 79%
07:00 +2°C° 0 mm 3 m/s 763 mmHg 78%
08:00 +4°C° 0 mm 3 m/s 763 mmHg 70%
09:00 +7°C° 0 mm 3 m/s 763 mmHg 62%
10:00 +8°C° 0 mm 3 m/s 763 mmHg 54%
11:00 +9°C° 0 mm 3 m/s 763 mmHg 51%
12:00 +10°C° 0 mm 3 m/s 763 mmHg 47%
13:00 +11°C° 0 mm 3 m/s 763 mmHg 43%
14:00 +11°C° 0 mm 3 m/s 763 mmHg 47%
15:00 +10°C° 0 mm 3 m/s 763 mmHg 52%
16:00 +10°C° 0 mm 3 m/s 763 mmHg 56%
17:00 +9°C° 0 mm 3 m/s 763 mmHg 65%
18:00 +8°C° 0 mm 3 m/s 763 mmHg 74%
19:00 +7°C° 0 mm 3 m/s 764 mmHg 83%
20:00 +5°C° 0 mm 3 m/s 764 mmHg 86%
21:00 +4°C° 0 mm 3 m/s 764 mmHg 88%
22:00 +4°C° 0 mm 3 m/s 764 mmHg 91%
23:00 +4°C° 0 mm 3 m/s 764 mmHg 91%
Arată mai mult

Formular de consimțământ

Meteoprog și furnizorii noștri de servicii pot stoca și accesa date personale, precum cookies, identificatori de dispozitiv sau alte tehnologii similare pe dispozitivul dumneavoastră și procesa astfel de date pentru a personaliza conținutul și reclamele, dar și pentru a oferi caracteristici de social media și pentru a analiza traficul.

  • Stocarea și/sau accesarea informațiilor pe dispozitivul dumneavoastră

    Cookies, identificatori de dispozitiv sau alte informații pot fi stocate sau accesate pe dispozitiv în scopurile indicate mai sus.

  • Reclame și conținut personalizat, evaluarea reclamelor și a conținutului, informații despre audiențe și dezvoltarea produselor

    Reclamele și conținutul pot fi personalizate pe baza unui profil. Pot fi adăugate date suplimentare pentru a personaliza mai bine reclamele și conținutul. Performanța reclamelor și conținutului poate fi măsurată. Pot fi obținute informații despre utilizatorii care au văzut reclamele și conținutul. Aceste date pot fi utilizate pentru a dezvolta sau îmbunătăți experiența utilizatorilor, sistemele și software-ul.

Dând clic pe ‘Sunt de acord’, permiteți utilizarea cookie-urilor menționate, a identificatorilor de dispozitiv, balizelor web sau altor tehnologii similare. Setările pot fi modificate din browser-ul dispozitivului dumneavoastră.

În anumite scopuri, interesele legitime pot prima asupra consimțământului. Puteți citi mai multe informații în acest sens în Politica privind Confidențialitatea Datelor și Cookie.